This demonstration page uses our WeatherBlox Daily Observations layout. Learn more.

Left ArrowRight Arrow

41.55636, -103.73856

Hourly Observations for May 21, 2019

Temp ( °F °C ) Dew Point ( °F °C ) Humidity (%) Winds ( mph kmh ) Pressure ( in mb ) Visibility ( mi km ) Precip ( " mm )
6:58 pm 18:58 Mostly Clear with Light Showers 33 0.6 32 0 96 96 E 13 20 29.91 1013 1 2 0.02 0.51
7:58 pm 19:58 Mostly Clear with Snow 33 0.7 32 0.1 96 96 E 8 13 29.91 1013 3 5 0.01 0.25
8:58 pm 20:58 Mostly Clear with Light Rain/Snow 33 0.7 32 0.1 96 96 E 9 15 29.91 1013 7 11 0.03 0.76
9:58 pm 21:58 Mostly Clear with Snow 32 0.1 31 -0.4 96 96 E 10 17 29.91 1013 1 1 0.02 0.51
10:58 pm 22:58 Mostly Clear with Snow 31 -0.5 30 -1 96 96 E 12 19 29.88 1012 1 1 0.04 1.02
11:58 pm 23:58 Partly Cloudy with Isolated Snow Showers 31 -0.8 29 -1.4 96 96 E 10 17 29.88 1012 1 1 0.04 1.02
12:58 am 00:58 Mostly Clear with Snow 30 -1 29 -1.6 96 96 E 12 19 29.89 1012 5 8 0.03 0.76
1:58 am 01:58 Mostly Clear with Snow 31 -0.7 29 -1.4 95 95 ENE 16 26 29.86 1011 1 1 0.03 0.76
2:58 am 02:58 Mostly Clear with Heavy Snow 31 -0.8 29 -1.4 96 96 E 14 22 29.85 1011 3 5 0.02 0.51
3:58 am 03:58 Partly Cloudy with Isolated Snow Showers 30 -1 29 -1.7 95 95 E 14 22 29.79 1009 1 2 0.02 0.51
4:58 am 04:58 Partly Cloudy with Isolated Snow Showers 30 -1.1 29 -1.7 96 96 ENE 12 19 29.75 1008 5 8 0.01 0.25
5:58 am 05:58 Partly Cloudy with Isolated Snow Showers 30 -1.2 29 -1.7 96 96 ENE 9 15 29.75 1008 1 1 0.01 0.25
6:58 am 06:58 Partly Cloudy with Isolated Snow Showers 30 -1 29 -1.5 96 96 N 3 6 29.75 1007 3 5 0.02 0.51
7:58 am 07:58 Partly Cloudy with Isolated Snow Showers 31 -0.8 30 -1.3 96 96 N 9 15 29.73 1007 1 1 0.06 1.52
8:58 am 08:58 Partly Cloudy with Light Snow Showers 31 -0.6 30 -1.1 96 96 NNW 5 7 29.75 1007 1 1 0.13 3.30
9:58 am 09:58 Partly Cloudy with Snow 31 -0.5 30 -1.1 96 96 N 9 15 29.71 1006 7 11 0.06 1.52
10:59 am 10:59 Partly Cloudy with Snow 31 -0.4 30 -1.1 95 95 N 17 28 29.68 1005 1 1 0.01 0.25
11:58 am 11:58 Partly Cloudy with Isolated Snow Showers 31 -0.6 30 -1.3 95 95 N 17 28 29.70 1006 0 0 0.02 0.51
12:58 pm 12:58 Partly Cloudy with Isolated Snow Showers 31 -0.4 30 -1.1 95 95 N 15 24 29.66 1004 0 0 0.03 0.76
1:58 pm 13:58 Partly Cloudy with Isolated Snow Showers 32 -0.2 30 -0.9 95 95 N 17 28 29.64 1004 1 2 0.02 0.51
2:59 pm 14:59 Partly Cloudy with Isolated Snow Showers 32 -0.2 30 -0.9 95 95 NNW 17 28 29.62 1003 7 11 0.01 0.25
3:58 pm 15:58 Partly Cloudy with Isolated Snow Showers 31 -0.4 30 -1.2 94 94 NNW 18 30 29.61 1003 1 2 0.01 0.25

Powered by AerisWeather